This demonstration page uses our WeatherBlox Daily Observations layout. Learn more.

Left ArrowRight Arrow

39.12711, -84.51439

Hourly Observations for July 13, 2021

Temp ( °F °C ) Dew Point ( °F °C ) Humidity (%) Winds ( mph kmh ) Pressure ( in mb ) Visibility ( mi km ) Precip ( " mm )
12:53 am 00:53 Mostly Cloudy 71 21.7 70 21.1 96 96 N N/A 30.07 1018 10 16 0.00 0.00
1:53 am 01:53 Mostly Cloudy 73 22.8 70 21.1 90 90 SSE 5 7 30.06 1018 10 16 0.00 0.00
2:53 am 02:53 Clear 71 21.7 69 20.6 94 94 S 7 11 30.06 1018 10 16 N/A
3:53 am 03:53 Clear 71 21.7 69 20.6 94 94 S 6 9 30.06 1018 10 16 N/A
4:37 am 04:37 Mostly Cloudy 71 21.7 69 20.6 94 94 SW 3 6 30.06 1018 10 16 N/A
4:53 am 04:53 Mostly Cloudy 71 21.7 69 20.6 94 94 SSW 3 6 30.05 1018 10 16 N/A
5:13 am 05:13 Partly Cloudy 71 21.7 69 20.6 94 94 S 3 6 30.06 1018 10 16 N/A
5:23 am 05:23 Mostly Cloudy 71 21.7 69 20.6 94 94 S 3 6 30.06 1018 10 16 N/A
5:32 am 05:32 Mostly Cloudy 71 21.7 69 20.6 94 94 SSE 3 6 30.06 1018 10 16 N/A
5:53 am 05:53 Partly Cloudy 71 21.7 69 20.6 94 94 N N/A 30.06 1018 10 16 N/A
6:53 am 06:53 Mostly Cloudy with Light Rain 71 21.7 69 20.6 94 94 S 5 7 30.09 1019 10 16 0.00 0.00
7:53 am 07:53 Cloudy 72 22.2 70 21.1 94 94 SSW 3 6 30.10 1019 10 16 0.02 0.51
8:53 am 08:53 Mostly Cloudy 73 22.8 71 21.7 94 94 S 8 13 30.11 1020 10 16 N/A
9:53 am 09:53 Cloudy 75 23.9 71 21.7 88 88 S 9 15 30.12 1020 10 16 N/A
9:57 am 09:57 Cloudy 75 23.9 71 21.7 88 88 S 8 13 30.11 1020 10 16 N/A
10:53 am 10:53 Mostly Cloudy 77 25 72 22.2 85 85 S 10 17 30.11 1020 10 16 N/A
11:53 am 11:53 Mostly Cloudy 78 25.6 70 21.1 76 76 SSW 10 17 30.10 1019 10 16 N/A
12:53 pm 12:53 Cloudy 79 26.1 69 20.6 72 72 S 12 19 30.10 1019 10 16 0.00 0.00
1:07 pm 13:07 Mostly Cloudy 80 26.7 70 21.1 71 71 S 15 24 30.09 1019 10 16 N/A
1:53 pm 13:53 Mostly Cloudy 79 26.1 69 20.6 72 72 S 14 22 30.09 1019 10 16 N/A
2:01 pm 14:01 Mostly Cloudy with Heavy Rain 76 24.4 70 21.1 82 82 WSW 15 24 30.10 1019 2 3 0.10 2.54
2:04 pm 14:04 Mostly Cloudy with Heavy Rain 75 23.9 70 21.1 84 84 W 14 22 30.10 1019 2 3 0.24 6.10
2:24 pm 14:24 Mostly Cloudy 74 23.3 70 21.1 88 88 SSW 3 6 30.09 1019 7 11 0.46 11.68
2:53 pm 14:53 Partly Cloudy 80 26.7 71 21.7 74 74 S 14 22 30.09 1019 10 16 0.46 11.68
3:53 pm 15:53 Sunny 81 27.2 71 21.7 72 72 SSE 14 22 30.08 1019 10 16 N/A
4:53 pm 16:53 Mostly Cloudy with Thunderstorms 78 25.6 70 21.1 76 76 S 17 28 30.06 1018 10 16 0.00 0.00
4:59 pm 16:59 Mostly Cloudy with Thunderstorms 76 24.4 70 21.1 82 82 SW 33 54 30.11 1020 1 1 0.16 4.06
5:02 pm 17:02 Mostly Cloudy with Thunderstorms 72 22.2 69 20.6 91 91 W 26 43 30.10 1019 0 0 0.42 10.67
5:12 pm 17:12 Mostly Cloudy with Thunderstorms 71 21.7 68 20 90 90 WSW 17 28 30.11 1019 1 2 0.65 16.51
5:19 pm 17:19 Cloudy with Thunderstorms 72 22 N/A N/A WSW 10 17 30.10 1019 2 3 0.76 19.30
5:27 pm 17:27 Cloudy with Nearby Thunderstorms 72 22.2 70 21.1 94 94 S 9 15 30.10 1019 3 5 0.80 20.32
5:42 pm 17:42 Cloudy with Light Rain 72 22.2 70 21.1 94 94 SW 12 19 30.10 1019 10 16 0.80 20.32
5:53 pm 17:53 Cloudy with Heavy Rain 72 22.2 70 21.1 94 94 SSW 10 17 30.11 1020 10 16 0.83 21.08
6:00 pm 18:00 Mostly Cloudy with Light Rain 73 23 N/A N/A SSW 9 15 30.10 1019 3 5 0.01 0.25
6:53 pm 18:53 Mostly Cloudy with Light Rain 74 23.3 72 22.2 94 94 S 7 11 30.11 1020 8 13 0.01 0.25
7:53 pm 19:53 Partly Cloudy 74 23.3 73 22.8 97 97 S 5 7 30.11 1020 10 16 0.00 0.00
8:53 pm 20:53 Mostly Cloudy 74 23.3 72 22.2 94 94 N N/A 30.11 1020 10 16 N/A
9:53 pm 21:53 Partly Cloudy 74 23.3 71 21.7 91 91 N N/A 30.12 1020 10 16 N/A
10:53 pm 22:53 Partly Cloudy 74 23.3 70 21.1 88 88 SSW 3 6 30.14 1021 10 16 N/A
11:53 pm 23:53 Mostly Clear 71 21.7 68 20 90 90 N N/A 30.15 1021 10 16 N/A

Powered by AerisWeather